Location: Asheville, NC
(35.6000°N, 82.5500°W)
Time: 14:40:09
(UTC-05:00)

Vanguard 2 - Pass Details

Date: 14 December 2017
Orbit: 552 x 2940 km, 32.9° (Epoch: 16 January)

Event Time Altitude Azimuth Distance (km) Brightness Sun altitude
Rises 14:07:01 0° 227° (SW) 5,589 13.0 26.4°
Reaches altitude 10° 14:11:40 10° 220° (SW) 4,171 12.9 26.0°
Maximum altitude 14:20:38 34° 161° (SSE) 1,965 10.5 25.1°
Drops below altitude 10° 14:26:26 10° 97° (E) 2,668 10.2 24.5°
Sets 14:28:45 0° 88° (E) 3,381 10.5 24.3°
